Date String (YYYY-MM-DD hh:mm:ss) UTC,Instrument flags,Ambient pressure (hPa),Sample flow (lpm),Bypass flow (lpm),Sample temperature (°C),Ambient temperature (°C),ASC tube jacket temperature (°C),LED temperature (°C),Box temperature (°C),Sample RH (%),Span deviation,Mass concentration (μg/m³),Mass concentration (μg/m³),Mass concentration (μg/m³)
DateTimeUTC,F1_M11,P_M11,Q1_M11,Q2_M11,T1_M11,T2_M11,T3_M11,T4_M11,T5_M11,U1_M11,ZSPAN_M11,X0_M11,X2_M11,X1_M11
2022-07-23 08:00:00,,0825.0,5.01,0.00,29.7,28.6,00.0,38.4,31.7,20.7,0000.0,0011.39,0004.84,0004.06
2022-07-23 08:01:00,,0825.1,4.99,0.00,29.7,28.7,00.0,38.5,31.7,20.3,0000.0,0011.43,0004.81,0004.04
2022-07-23 08:02:00,,0825.0,5.01,0.00,29.8,28.3,00.0,38.4,31.7,19.9,0000.0,0011.63,0004.76,0004.01
2022-07-23 08:03:00,,0825.0,4.99,0.00,29.7,27.7,00.0,38.4,31.6,19.9,0000.0,0011.14,0004.69,0003.97
2022-07-23 08:04:00,,0825.0,5.00,0.00,29.7,27.5,00.0,38.4,31.5,19.8,0000.0,0010.85,0004.64,0003.94
2022-07-23 08:05:00,,0825.0,5.00,0.00,29.6,27.5,00.0,38.4,31.4,19.8,0000.0,0010.11,0004.60,0003.92
2022-07-23 08:06:00,,0824.9,5.00,0.00,29.6,27.6,00.0,38.4,31.4,19.7,0000.0,0009.80,0004.61,0003.93
2022-07-23 08:07:00,,0825.0,5.00,0.00,29.6,27.7,00.0,38.4,31.4,19.7,0000.0,0009.21,0004.60,0003.93
2022-07-23 08:08:00,,0824.9,5.00,0.00,29.6,27.9,00.0,38.4,31.4,19.7,0000.0,0008.99,0004.62,0003.94
2022-07-23 08:09:00,,0824.9,5.00,0.00,29.6,28.0,00.0,38.4,31.5,19.7,0000.0,0008.91,0004.56,0003.93
2022-07-23 08:10:00,,0824.9,5.00,0.00,29.6,28.1,00.0,38.4,31.5,20.0,0000.0,0008.87,0004.52,0003.92
2022-07-23 08:11:00,,0824.9,5.00,0.00,29.6,28.2,00.0,38.4,31.5,19.9,0000.0,0008.72,0004.50,0003.90
2022-07-23 08:12:00,,0824.9,5.01,0.00,29.6,28.3,00.0,38.4,31.6,19.8,0000.0,0008.62,0004.47,0003.88
2022-07-23 08:13:00,,0825.0,5.00,0.00,29.7,28.4,00.0,38.4,31.6,19.6,0000.0,0008.15,0004.45,0003.86
2022-07-23 08:14:00,,0824.9,5.00,0.00,29.7,28.5,00.0,38.4,31.7,19.6,0000.0,0008.15,0004.44,0003.84
2022-07-23 08:15:00,,0824.9,4.99,0.00,29.7,28.6,00.0,38.4,31.7,19.5,0000.0,0008.07,0004.41,0003.83
2022-07-23 08:16:00,,0825.0,5.02,0.00,29.8,28.4,00.0,38.4,31.7,19.4,0000.0,0008.23,0004.38,0003.81
2022-07-23 08:17:00,,0825.0,4.99,0.00,29.7,27.7,00.0,38.4,31.6,19.6,0000.0,0008.51,0004.37,0003.82
2022-07-23 08:18:00,,0824.9,5.00,0.00,29.7,27.4,00.0,38.3,31.5,19.7,0000.0,0008.33,0004.35,0003.82
2022-07-23 08:19:00,,0825.0,4.99,0.00,29.6,27.3,00.0,38.3,31.4,19.9,0000.0,0008.36,0004.35,0003.82
2022-07-23 08:20:00,,0825.0,5.00,0.00,29.6,27.4,00.0,38.3,31.4,20.0,0000.0,0008.52,0004.37,0003.84
2022-07-23 08:21:00,,0824.9,4.99,0.00,29.6,27.6,00.0,38.3,31.4,19.9,0000.0,0009.19,0004.38,0003.85
2022-07-23 08:22:00,,0825.0,5.01,0.00,29.5,27.7,00.0,38.3,31.4,19.7,0000.0,0009.18,0004.37,0003.84
2022-07-23 08:23:00,,0824.9,5.00,0.00,29.5,27.8,00.0,38.3,31.4,19.6,0000.0,0009.12,0004.36,0003.83
2022-07-23 08:24:00,,0825.0,5.00,0.00,29.6,28.0,00.0,38.3,31.4,19.5,0000.0,0009.77,0004.36,0003.84
2022-07-23 08:25:00,,0824.9,5.00,0.00,29.6,28.1,00.0,38.3,31.5,19.6,0000.0,0010.06,0004.38,0003.84
2022-07-23 08:26:00,,0825.0,5.01,0.00,29.6,28.2,00.0,38.4,31.5,19.7,0000.0,0010.41,0004.40,0003.84
2022-07-23 08:27:00,,0824.9,4.99,0.00,29.6,28.3,00.0,38.4,31.5,19.7,0000.0,0010.23,0004.42,0003.85
2022-07-23 08:28:00,,0824.9,5.00,0.00,29.6,28.4,00.0,38.4,31.6,19.7,0000.0,0010.11,0004.44,0003.86
2022-07-23 08:29:00,,0824.9,5.01,0.00,29.7,28.5,00.0,38.4,31.6,19.6,0000.0,0010.44,0004.47,0003.88
2022-07-23 08:30:00,,0824.9,5.00,0.00,29.7,28.5,00.0,38.4,31.7,19.5,0000.0,0010.72,0004.49,0003.88
2022-07-23 08:31:00,,0825.0,5.01,0.00,29.7,28.6,00.0,38.4,31.7,19.5,0000.0,0010.57,0004.48,0003.88
2022-07-23 08:32:00,,0824.9,4.99,0.00,29.7,28.7,00.0,38.5,31.7,19.7,0000.0,0009.94,0004.47,0003.87
2022-07-23 08:33:00,,0824.9,5.00,0.00,29.8,28.6,00.0,38.5,31.8,20.3,0000.0,0009.89,0004.49,0003.89
2022-07-23 08:34:00,,0824.9,5.01,0.00,29.8,27.8,00.0,38.4,31.7,20.5,0000.0,0010.01,0004.53,0003.92
2022-07-23 08:35:00,,0824.9,4.99,0.00,29.7,27.5,00.0,38.4,31.6,20.7,0000.0,0009.43,0004.61,0003.98
2022-07-23 08:36:00,,0824.9,5.00,0.00,29.7,27.4,00.0,38.4,31.5,20.5,0000.0,0009.17,0004.62,0004.01
2022-07-23 08:37:00,,0824.9,4.99,0.00,29.6,27.5,00.0,38.4,31.4,21.0,0000.0,0009.13,0004.68,0004.05
2022-07-23 08:38:00,,0824.9,5.01,0.00,29.6,27.6,00.0,38.4,31.4,21.2,0000.0,0009.14,0004.71,0004.10
2022-07-23 08:39:00,,0824.8,4.99,0.00,29.6,27.7,00.0,38.4,31.4,21.1,0000.0,0009.02,0004.76,0004.14
2022-07-23 08:40:00,,0824.9,5.00,0.00,29.6,27.9,00.0,38.4,31.4,21.1,0000.0,0008.81,0004.79,0004.16
2022-07-23 08:41:00,,0824.9,5.01,0.00,29.6,28.0,00.0,38.4,31.5,21.0,0000.0,0008.59,0004.84,0004.19
2022-07-23 08:42:00,,0824.9,5.00,0.00,29.6,28.1,00.0,38.4,31.5,21.3,0000.0,0009.18,0004.91,0004.23
2022-07-23 08:43:00,,0824.9,5.00,0.00,29.6,28.2,00.0,38.4,31.5,21.7,0000.0,0009.94,0004.97,0004.27
2022-07-23 08:44:00,,0824.9,4.99,0.00,29.6,28.3,00.0,38.4,31.6,21.8,0000.0,0011.04,0005.04,0004.31
2022-07-23 08:45:00,,0824.9,5.00,0.00,29.7,28.4,00.0,38.4,31.6,21.9,0000.0,0012.04,0005.14,0004.36
2022-07-23 08:46:00,,0824.9,5.00,0.00,29.7,28.5,00.0,38.4,31.6,21.8,0000.0,0012.18,0005.20,0004.39
2022-07-23 08:47:00,,0824.9,5.01,0.00,29.7,28.6,00.0,38.4,31.7,21.6,0000.0,0012.31,0005.27,0004.42
2022-07-23 08:48:00,,0824.9,5.00,0.00,29.7,28.6,00.0,38.5,31.7,21.6,0000.0,0012.19,0005.26,0004.45
2022-07-23 08:49:00,,0824.9,5.00,0.00,29.8,28.7,00.0,38.5,31.7,21.4,0000.0,0012.28,0005.32,0004.47
2022-07-23 08:50:00,,0824.9,5.00,0.00,29.8,28.6,00.0,38.5,31.7,20.8,0000.0,0012.31,0005.33,0004.49
2022-07-23 08:51:00,,0825.0,5.00,0.00,29.8,27.9,00.0,38.4,31.7,20.1,0000.0,0012.33,0005.31,0004.50
2022-07-23 08:52:00,,0825.0,4.99,0.00,29.8,27.5,00.0,38.4,31.6,19.9,0000.0,0012.28,0005.32,0004.50
2022-07-23 08:53:00,,0825.0,5.01,0.00,29.7,27.4,00.0,38.4,31.5,20.2,0000.0,0012.10,0005.30,0004.50
2022-07-23 08:54:00,,0825.0,4.99,0.00,29.6,27.5,00.0,38.4,31.4,20.7,0000.0,0011.61,0005.30,0004.50
2022-07-23 08:55:00,,0825.1,4.99,0.00,29.6,27.6,00.0,38.4,31.4,20.6,0000.0,0011.10,0005.30,0004.50
2022-07-23 08:56:00,,0825.0,4.99,0.00,29.6,27.7,00.0,38.4,31.4,20.5,0000.0,0010.32,0005.27,0004.48
2022-07-23 08:57:00,,0825.0,5.02,0.00,29.6,27.9,00.0,38.4,31.4,20.5,0000.0,0010.37,0005.25,0004.46
2022-07-23 08:58:00,,0825.1,5.00,0.00,29.6,28.0,00.0,38.4,31.5,20.6,0000.0,0010.27,0005.19,0004.44
2022-07-23 08:59:00,,0825.1,5.00,0.00,29.6,28.1,00.0,38.4,31.5,20.7,0000.0,0010.79,0005.17,0004.42
